Time,TemperatureF,DewpointF,PressureIn,WindDirection,WindDirectionDegrees,WindSpeedMPH,WindSpeedGustMPH,Humidity,HourlyPrecipIn,Conditions,Clouds,dailyrainin,SoftwareType,DateUTC
2013-09-11 00:07:00,68.8,55.0,29.88,NE,52,4.0,5.0,62,0.00,,,0.00,weatherlink.com 1.10,2013-09-11 07:07:00,
2013-09-11 00:22:00,68.5,55.0,29.89,NE,53,4.0,6.0,62,0.00,,,0.00,weatherlink.com 1.10,2013-09-11 07:22:00,
2013-09-11 00:37:00,67.7,55.0,29.89,NE,50,4.0,7.0,64,0.00,,,0.00,weatherlink.com 1.10,2013-09-11 07:37:00,
2013-09-11 00:52:00,67.4,55.0,29.89,NE,34,2.0,6.0,65,0.00,,,0.00,weatherlink.com 1.10,2013-09-11 07:52:00,
2013-09-11 01:07:00,65.0,55.0,29.89,NE,55,6.0,8.0,70,0.00,,,0.00,weatherlink.com 1.10,2013-09-11 08:07:00,
2013-09-11 01:22:00,64.7,55.0,29.89,NE,45,6.0,8.0,71,0.00,,,0.00,weatherlink.com 1.10,2013-09-11 08:22:00,
2013-09-11 01:37:00,64.9,55.0,29.89,ENE,62,5.0,7.0,70,0.00,,,0.00,weatherlink.com 1.10,2013-09-11 08:37:00,
2013-09-11 01:52:00,64.2,55.0,29.90,NE,48,5.0,8.0,72,0.00,,,0.00,weatherlink.com 1.10,2013-09-11 08:52:00,
2013-09-11 02:07:00,64.3,55.0,29.90,NNE,23,5.0,9.0,71,0.00,,,0.00,weatherlink.com 1.10,2013-09-11 09:07:00,
2013-09-11 02:22:00,64.6,55.0,29.90,NE,38,5.0,7.0,70,0.00,,,0.00,weatherlink.com 1.10,2013-09-11 09:22:00,
2013-09-11 02:37:00,64.0,54.0,29.90,NE,48,6.0,8.0,71,0.00,,,0.00,weatherlink.com 1.10,2013-09-11 09:37:00,
2013-09-11 02:53:00,63.1,54.0,29.90,NNE,30,4.0,7.0,73,0.00,,,0.00,weatherlink.com 1.10,2013-09-11 09:53:00,
2013-09-11 03:08:00,64.1,54.0,29.90,NE,45,2.0,8.0,70,0.00,,,0.00,weatherlink.com 1.10,2013-09-11 10:08:00,
2013-09-11 03:23:00,63.5,54.0,29.91,NE,56,5.0,7.0,72,0.00,,,0.00,weatherlink.com 1.10,2013-09-11 10:23:00,
2013-09-11 03:38:00,63.1,54.0,29.91,NE,41,4.0,9.0,73,0.00,,,0.00,weatherlink.com 1.10,2013-09-11 10:38:00,
2013-09-11 03:53:00,62.8,54.0,29.91,NE,45,4.0,8.0,74,0.00,,,0.00,weatherlink.com 1.10,2013-09-11 10:53:00,
2013-09-11 04:08:00,62.7,54.0,29.91,NE,51,2.0,7.0,74,0.00,,,0.00,weatherlink.com 1.10,2013-09-11 11:08:00,
2013-09-11 04:23:00,62.6,54.0,29.92,NE,48,5.0,6.0,74,0.00,,,0.00,weatherlink.com 1.10,2013-09-11 11:23:00,
2013-09-11 04:38:00,62.0,54.0,29.92,NE,44,5.0,7.0,75,0.00,,,0.00,weatherlink.com 1.10,2013-09-11 11:38:00,
2013-09-11 04:53:00,61.3,54.0,29.92,NE,49,4.0,8.0,77,0.00,,,0.00,weatherlink.com 1.10,2013-09-11 11:53:00,
2013-09-11 05:08:00,61.1,54.0,29.92,NNE,23,4.0,8.0,77,0.00,,,0.00,weatherlink.com 1.10,2013-09-11 12:08:00,
2013-09-11 05:23:00,60.9,54.0,29.92,NE,55,4.0,6.0,78,0.00,,,0.00,weatherlink.com 1.10,2013-09-11 12:23:00,
2013-09-11 05:38:00,60.2,54.0,29.93,NE,46,5.0,7.0,79,0.00,,,0.00,weatherlink.com 1.10,2013-09-11 12:38:00,
2013-09-11 05:53:00,60.1,54.0,29.93,NE,51,5.0,7.0,79,0.00,,,0.00,weatherlink.com 1.10,2013-09-11 12:53:00,
2013-09-11 06:08:00,59.7,54.0,29.93,NE,40,4.0,6.0,80,0.00,,,0.00,weatherlink.com 1.10,2013-09-11 13:08:00,
2013-09-11 06:38:00,60.0,54.0,29.94,NNE,31,4.0,8.0,80,0.00,,,0.00,weatherlink.com 1.10,2013-09-11 13:38:00,
2013-09-11 06:53:00,59.8,54.0,29.95,NNE,22,4.0,7.0,80,0.00,,,0.00,weatherlink.com 1.10,2013-09-11 13:53:00,
2013-09-11 07:08:00,59.6,53.0,29.95,NE,41,5.0,7.0,80,0.00,,,0.00,weatherlink.com 1.10,2013-09-11 14:08:00,
2013-09-11 07:23:00,59.6,54.0,29.95,North,356,4.0,7.0,81,0.00,,,0.00,weatherlink.com 1.10,2013-09-11 14:23:00,
2013-09-11 07:38:00,60.6,54.0,29.95,NE,38,5.0,7.0,80,0.00,,,0.00,weatherlink.com 1.10,2013-09-11 14:38:00,
2013-09-11 07:53:00,61.7,55.0,29.96,NE,46,4.0,6.0,78,0.00,,,0.00,weatherlink.com 1.10,2013-09-11 14:53:00,
2013-09-11 08:08:00,63.0,55.0,29.96,NE,42,2.0,6.0,75,0.00,,,0.00,weatherlink.com 1.10,2013-09-11 15:08:00,
2013-09-11 08:23:00,64.3,55.0,29.96,NE,54,3.0,6.0,72,0.00,,,0.00,weatherlink.com 1.10,2013-09-11 15:23:00,
2013-09-11 08:38:00,65.7,56.0,29.96,SE,128,0.0,4.0,71,0.00,,,0.00,weatherlink.com 1.10,2013-09-11 15:38:00,
2013-09-11 08:53:00,67.5,57.0,29.96,SE,135,0.0,4.0,69,0.00,,,0.00,weatherlink.com 1.10,2013-09-11 15:53:00,
2013-09-11 09:08:00,68.1,57.0,29.96,SE,137,0.0,1.0,67,0.00,,,0.00,weatherlink.com 1.10,2013-09-11 16:08:00,
2013-09-11 09:23:00,71.2,57.0,29.96,SSE,152,0.0,2.0,61,0.00,,,0.00,weatherlink.com 1.10,2013-09-11 16:23:00,
2013-09-11 09:38:00,72.3,58.0,29.96,SSE,166,1.0,3.0,61,0.00,,,0.00,weatherlink.com 1.10,2013-09-11 16:38:00,
2013-09-11 09:53:00,72.0,58.0,29.96,South,169,0.0,2.0,61,0.00,,,0.00,weatherlink.com 1.10,2013-09-11 16:53:00,
2013-09-11 10:08:00,73.8,58.0,29.96,South,169,1.0,3.0,58,0.00,,,0.00,weatherlink.com 1.10,2013-09-11 17:08:00,
2013-09-11 10:23:00,73.4,59.0,29.95,South,172,1.0,3.0,60,0.00,,,0.00,weatherlink.com 1.10,2013-09-11 17:23:00,
2013-09-11 10:38:00,75.6,60.0,29.95,South,172,1.0,2.0,58,0.00,,,0.00,weatherlink.com 1.10,2013-09-11 17:38:00,
2013-09-11 10:53:00,77.1,59.0,29.95,South,171,0.0,3.0,54,0.00,,,0.00,weatherlink.com 1.10,2013-09-11 17:53:00,
2013-09-11 11:09:00,81.3,58.0,29.95,South,176,2.0,6.0,45,0.00,,,0.00,weatherlink.com 1.10,2013-09-11 18:09:00,
2013-09-11 11:24:00,84.1,59.0,29.94,South,183,1.0,4.0,42,0.00,,,0.00,weatherlink.com 1.10,2013-09-11 18:24:00,
2013-09-11 11:39:00,86.7,59.0,29.94,South,190,2.0,4.0,39,0.00,,,0.00,weatherlink.com 1.10,2013-09-11 18:39:00,
2013-09-11 11:54:00,87.3,59.0,29.93,South,190,2.0,4.0,39,0.00,,,0.00,weatherlink.com 1.10,2013-09-11 18:54:00,
2013-09-11 12:09:00,87.5,57.0,29.93,SSE,160,5.0,6.0,35,0.00,,,0.00,weatherlink.com 1.10,2013-09-11 19:09:00,
2013-09-11 12:24:00,89.6,58.0,29.92,South,191,1.0,7.0,34,0.00,,,0.00,weatherlink.com 1.10,2013-09-11 19:24:00,
2013-09-11 12:40:00,91.6,57.0,29.92,South,182,2.0,6.0,31,0.00,,,0.00,weatherlink.com 1.10,2013-09-11 19:40:00,
2013-09-11 12:54:00,93.4,58.0,29.92,South,188,2.0,5.0,30,0.00,,,0.00,weatherlink.com 1.10,2013-09-11 19:54:00,
2013-09-11 13:09:00,92.4,56.0,29.91,South,190,2.0,5.0,29,0.00,,,0.00,weatherlink.com 1.10,2013-09-11 20:09:00,
2013-09-11 13:24:00,95.3,55.0,29.91,South,191,4.0,6.0,26,0.00,,,0.00,weatherlink.com 1.10,2013-09-11 20:24:00,
2013-09-11 13:39:00,93.1,55.0,29.91,SSW,195,1.0,5.0,28,0.00,,,0.00,weatherlink.com 1.10,2013-09-11 20:39:00,
2013-09-11 13:54:00,94.6,57.0,29.90,SW,234,2.0,7.0,28,0.00,,,0.00,weatherlink.com 1.10,2013-09-11 20:54:00,
2013-09-11 14:09:00,94.8,57.0,29.89,SSW,192,3.0,8.0,28,0.00,,,0.00,weatherlink.com 1.10,2013-09-11 21:09:00,
2013-09-11 14:24:00,96.4,56.0,29.88,SSW,197,3.0,5.0,26,0.00,,,0.00,weatherlink.com 1.10,2013-09-11 21:24:00,
2013-09-11 14:39:00,96.1,55.0,29.88,South,188,3.0,5.0,25,0.00,,,0.00,weatherlink.com 1.10,2013-09-11 21:39:00,
2013-09-11 14:54:00,95.1,55.0,29.87,South,182,1.0,6.0,26,0.00,,,0.00,weatherlink.com 1.10,2013-09-11 21:54:00,
2013-09-11 15:09:00,95.0,55.0,29.87,SSW,206,3.0,7.0,26,0.00,,,0.00,weatherlink.com 1.10,2013-09-11 22:09:00,
2013-09-11 15:24:00,96.1,55.0,29.86,South,191,2.0,7.0,25,0.00,,,0.00,weatherlink.com 1.10,2013-09-11 22:24:00,
2013-09-11 15:39:00,95.9,55.0,29.86,South,173,2.0,6.0,25,0.00,,,0.00,weatherlink.com 1.10,2013-09-11 22:39:00,
2013-09-11 15:54:00,96.8,54.0,29.85,South,183,2.0,5.0,24,0.00,,,0.00,weatherlink.com 1.10,2013-09-11 22:54:00,
2013-09-11 16:09:00,97.9,54.0,29.85,South,191,1.0,6.0,23,0.00,,,0.00,weatherlink.com 1.10,2013-09-11 23:09:00,
2013-09-11 16:24:00,96.6,53.0,29.84,South,169,3.0,5.0,23,0.00,,,0.00,weatherlink.com 1.10,2013-09-11 23:24:00,
2013-09-11 16:39:00,95.8,54.0,29.84,SSW,192,4.0,5.0,24,0.00,,,0.00,weatherlink.com 1.10,2013-09-11 23:39:00,
2013-09-11 16:54:00,96.0,51.0,29.84,SSE,151,4.0,4.0,22,0.00,,,0.00,weatherlink.com 1.10,2013-09-11 23:54:00,
2013-09-11 17:09:00,95.3,53.0,29.84,South,188,5.0,6.0,24,0.00,,,0.00,weatherlink.com 1.10,2013-09-12 00:09:00,
2013-09-11 17:24:00,94.8,54.0,29.83,SSW,192,0.0,4.0,25,0.00,,,0.00,weatherlink.com 1.10,2013-09-12 00:24:00,
2013-09-11 17:39:00,93.8,53.0,29.83,South,181,1.0,4.0,25,0.00,,,0.00,weatherlink.com 1.10,2013-09-12 00:39:00,
2013-09-11 17:54:00,93.1,51.0,29.83,South,175,2.0,3.0,24,0.00,,,0.00,weatherlink.com 1.10,2013-09-12 00:54:00,
2013-09-11 18:09:00,92.6,55.0,29.83,SE,140,0.0,4.0,28,0.00,,,0.00,weatherlink.com 1.10,2013-09-12 01:09:00,
2013-09-11 18:24:00,89.8,57.0,29.83,SE,138,2.0,4.0,33,0.00,,,0.00,weatherlink.com 1.10,2013-09-12 01:24:00,
2013-09-11 18:39:00,87.5,58.0,29.83,SE,132,2.0,4.0,37,0.00,,,0.00,weatherlink.com 1.10,2013-09-12 01:39:00,
2013-09-11 18:54:00,84.2,58.0,29.83,NNE,27,6.0,9.0,41,0.00,,,0.00,weatherlink.com 1.10,2013-09-12 01:54:00,
2013-09-11 19:09:00,80.9,58.0,29.83,NE,51,7.0,9.0,45,0.00,,,0.00,weatherlink.com 1.10,2013-09-12 02:09:00,
2013-09-11 19:24:00,79.8,57.0,29.83,NE,44,8.0,11.0,45,0.00,,,0.00,weatherlink.com 1.10,2013-09-12 02:24:00,
2013-09-11 19:39:00,78.5,57.0,29.84,NE,48,5.0,8.0,47,0.00,,,0.00,weatherlink.com 1.10,2013-09-12 02:39:00,
2013-09-11 19:54:00,78.2,56.0,29.84,NE,49,6.0,10.0,47,0.00,,,0.00,weatherlink.com 1.10,2013-09-12 02:54:00,
2013-09-11 20:09:00,77.7,56.0,29.85,ENE,57,7.0,9.0,48,0.00,,,0.00,weatherlink.com 1.10,2013-09-12 03:09:00,
2013-09-11 20:24:00,76.7,57.0,29.85,ENE,64,6.0,8.0,51,0.00,,,0.00,weatherlink.com 1.10,2013-09-12 03:24:00,
2013-09-11 20:39:00,75.6,57.0,29.86,NE,52,6.0,8.0,52,0.00,,,0.00,weatherlink.com 1.10,2013-09-12 03:39:00,
2013-09-11 20:54:00,75.2,57.0,29.86,NNE,17,2.0,6.0,53,0.00,,,0.00,weatherlink.com 1.10,2013-09-12 03:54:00,
2013-09-11 21:09:00,74.6,57.0,29.87,NE,38,1.0,3.0,54,0.00,,,0.00,weatherlink.com 1.10,2013-09-12 04:09:00,
2013-09-11 21:24:00,75.1,57.0,29.88,NNE,32,0.0,3.0,53,0.00,,,0.00,weatherlink.com 1.10,2013-09-12 04:24:00,
2013-09-11 21:39:00,74.3,56.0,29.88,NE,37,3.0,4.0,54,0.00,,,0.00,weatherlink.com 1.10,2013-09-12 04:39:00,
2013-09-11 21:54:00,73.8,57.0,29.88,NNE,30,2.0,3.0,55,0.00,,,0.00,weatherlink.com 1.10,2013-09-12 04:54:00,
2013-09-11 22:09:00,73.1,56.0,29.89,North,11,0.0,5.0,56,0.00,,,0.00,weatherlink.com 1.10,2013-09-12 05:09:00,
2013-09-11 22:24:00,71.8,57.0,29.89,NE,43,3.0,6.0,59,0.00,,,0.00,weatherlink.com 1.10,2013-09-12 05:24:00,
2013-09-11 22:39:00,70.8,56.0,29.89,NE,48,4.0,7.0,60,0.00,,,0.00,weatherlink.com 1.10,2013-09-12 05:39:00,
2013-09-11 22:54:00,70.7,56.0,29.89,NE,36,4.0,5.0,60,0.00,,,0.00,weatherlink.com 1.10,2013-09-12 05:54:00,
2013-09-11 23:09:00,69.6,56.0,29.89,NE,41,3.0,5.0,62,0.00,,,0.00,weatherlink.com 1.10,2013-09-12 06:09:00,
2013-09-11 23:25:00,68.7,56.0,29.89,NE,48,3.0,5.0,65,0.00,,,0.00,weatherlink.com 1.10,2013-09-12 06:25:00,
2013-09-11 23:40:00,67.9,56.0,29.89,NE,37,3.0,6.0,66,0.00,,,0.00,weatherlink.com 1.10,2013-09-12 06:40:00,
2013-09-11 23:55:00,67.9,56.0,29.90,NE,52,4.0,7.0,65,0.00,,,0.00,weatherlink.com 1.10,2013-09-12 06:55:00,